TimeCST,TemperatureF,Dew PointF,Humidity,Sea Level PressureIn,VisibilityMPH,Wind Direction,Wind SpeedMPH,Gust SpeedMPH,PrecipitationIn,Events,Conditions,WindDirDegrees,DateUTC
12:52 AM,28.9,15.1,56,30.35,10.0,NW,10.4,-,N/A,,Partly Cloudy,320,2012-12-05 06:52:00
1:52 AM,28.0,14.0,56,30.38,10.0,NNW,5.8,-,N/A,,Clear,330,2012-12-05 07:52:00
2:52 AM,27.0,14.0,58,30.40,10.0,NNW,10.4,-,N/A,,Partly Cloudy,330,2012-12-05 08:52:00
3:52 AM,26.1,14.0,60,30.41,10.0,NNW,9.2,-,N/A,,Partly Cloudy,340,2012-12-05 09:52:00
4:52 AM,25.0,12.9,60,30.41,10.0,NNW,5.8,-,N/A,,Partly Cloudy,330,2012-12-05 10:52:00
5:52 AM,25.0,12.9,60,30.43,10.0,NNW,5.8,-,N/A,,Partly Cloudy,330,2012-12-05 11:52:00
6:52 AM,25.0,14.0,63,30.45,10.0,NNW,8.1,-,N/A,,Scattered Clouds,340,2012-12-05 12:52:00
8:52 AM,28.9,18.0,64,30.46,10.0,North,5.8,-,N/A,,Mostly Cloudy,10,2012-12-05 14:52:00
9:28 AM,30.2,21.2,69,30.43,10.0,NE,8.1,-,N/A,,Mostly Cloudy,40,2012-12-05 15:28:00
9:52 AM,32.0,21.9,66,30.47,10.0,NE,10.4,-,N/A,,Mostly Cloudy,40,2012-12-05 15:52:00
10:52 AM,33.1,23.0,66,30.47,10.0,ENE,8.1,-,N/A,,Mostly Cloudy,60,2012-12-05 16:52:00
11:52 AM,34.0,24.1,67,30.45,10.0,ESE,3.5,-,N/A,,Mostly Cloudy,110,2012-12-05 17:52:00
12:52 PM,34.0,24.1,67,30.41,10.0,East,6.9,-,N/A,,Mostly Cloudy,100,2012-12-05 18:52:00
1:52 PM,34.0,25.0,70,30.40,10.0,East,3.5,-,N/A,,Mostly Cloudy,80,2012-12-05 19:52:00
2:52 PM,35.1,25.0,67,30.40,10.0,ESE,5.8,-,N/A,,Mostly Cloudy,110,2012-12-05 20:52:00
3:52 PM,34.0,25.0,70,30.39,10.0,East,9.2,-,N/A,,Mostly Cloudy,100,2012-12-05 21:52:00
4:52 PM,33.1,25.0,72,30.38,10.0,SE,6.9,-,N/A,,Mostly Cloudy,140,2012-12-05 22:52:00
5:52 PM,33.1,25.0,72,30.36,10.0,South,5.8,-,N/A,,Mostly Cloudy,170,2012-12-05 23:52:00
6:36 PM,32.0,24.8,75,30.32,10.0,South,6.9,-,N/A,,Scattered Clouds,170,2012-12-06 00:36:00
6:52 PM,30.9,25.0,79,30.34,10.0,SSE,4.6,-,N/A,,Partly Cloudy,150,2012-12-06 00:52:00
7:52 PM,32.0,25.0,75,30.33,10.0,SSE,5.8,-,N/A,,Partly Cloudy,160,2012-12-06 01:52:00
8:52 PM,32.0,26.1,79,30.30,10.0,SSE,8.1,-,N/A,,Partly Cloudy,160,2012-12-06 02:52:00
9:52 PM,34.0,28.0,79,30.26,10.0,South,5.8,-,N/A,,Mostly Cloudy,180,2012-12-06 03:52:00
10:52 PM,33.1,28.0,82,30.25,10.0,South,3.5,-,N/A,,Mostly Cloudy,190,2012-12-06 04:52:00
11:52 PM,33.1,28.0,82,30.24,10.0,SSW,5.8,-,N/A,,Mostly Cloudy,200,2012-12-06 05:52:00